Weather History for Isachsen, NU

Change the Weather History Date:

Thursday, August 22, 2013

  Actual Average Record
Temperature  
Mean Temperature 22 °F -  
Max Temperature 23 °F - - ()
Min Temperature 19 °F - - ()
Degree Days  
Heating Degree Days 44    
Moisture  
Dew Point 18 °F    
Average Humidity 83    
Maximum Humidity 90    
Minimum Humidity 75    
Precipitation  
Precipitation 0.01 in - - ()
Sea Level Pressure  
Sea Level Pressure 29.45 in    
Wind  
Wind Speed 13 mph ()    
Max Wind Speed 21 mph    
Max Gust Speed -    
T = Trace of Precipitation, MM = Missing Value Source: Averaged Metar Reports

Daily Weather History Graph

Daily Weather History Graph

Search for Another Location

Airport:

Trip Planner

Search our weather history database for the weather conditions in past years. The results will help you decide how hot, cold, wet, or windy it might be!

Date:

Astronomy

Dec. 31, 1969 Rise Set
Actual Time Sun does not rise 12:24 AM MDT
Civil Twilight Sun does not rise Sun does not rise
Nautical Twilight Sun does not rise Sun does not rise
Astronomical Twilight Sun does not rise Sun does not rise
Moon 7:56 PM MDT (8/22) 7:51 AM MDT (8/22)
Length of Visible Light 24h 00m
Length of Day
24h 00m
Waning Gibbous, 96% of the Moon is Illuminated
Aug 22
Waning Gibbous
Aug 28
Last Quarter
Sep 5
New
Sep 12
First Quarter
Sep 19
Full

Hourly Weather History & Observations

Time (MDT) Temp. Windchill Dew Point Humidity Pressure Visibility Wind Dir Wind Speed Gust Speed Precip Events Conditions
12:00 AM 21 °F - 16 °F 75% 29.37 in - SE 15.0 mph - -  
12:00 AM 21.0 °F 8.1 °F 16.5 °F 83% 29.37 in - SE 13.8 mph - N/A   Unknown
1:00 AM 20.8 °F 5.5 °F 15.3 °F 79% 29.37 in - SE 19.6 mph - 0.01 in   Unknown
2:00 AM 20.5 °F 4.6 °F 15.4 °F 81% 29.39 in - SE 20.7 mph - N/A   Unknown
3:00 AM 21.2 °F 7.3 °F 16.7 °F 83% 29.40 in - ESE 16.1 mph - N/A   Unknown
4:00 AM 21.4 °F 7.5 °F 16.7 °F 82% 29.41 in - ESE 16.1 mph - N/A   Unknown
5:00 AM 21.6 °F 8.8 °F 17.2 °F 83% 29.42 in - ESE 13.8 mph - N/A   Unknown
6:00 AM 21.6 °F 8.2 °F 18.1 °F 87% 29.43 in - ESE 15.0 mph - N/A   Unknown
7:00 AM 22.1 °F 8.9 °F 17.8 °F 83% 29.44 in - SE 15.0 mph - N/A   Unknown
8:00 AM 22.5 °F 10.5 °F 18.7 °F 85% 29.44 in - SE 12.7 mph - N/A   Unknown
9:00 AM 22.3 °F 8.7 °F 18.1 °F 84% 29.45 in - ESE 16.1 mph - N/A   Unknown
10:00 AM 22.5 °F 9.4 °F 18.9 °F 86% 29.46 in - SE 15.0 mph - N/A   Unknown
11:00 AM 23.2 °F 12.0 °F 18.5 °F 82% 29.47 in - SE 11.5 mph - N/A   Unknown
12:00 PM 23 °F - 18 °F 75% 29.48 in - SSE 11.5 mph - -  
12:00 PM 23.2 °F 12.0 °F 18.3 °F 82% 29.48 in - SSE 11.5 mph - N/A   Unknown
1:00 PM 23.2 °F 12.0 °F 18.7 °F 83% 29.49 in - SSE 11.5 mph - N/A   Unknown
2:00 PM 23.0 °F 12.4 °F 18.5 °F 83% 29.50 in - SSE 10.4 mph - N/A   Unknown
3:00 PM 22.6 °F 13.4 °F 18.1 °F 83% 29.51 in - SSE 8.1 mph - N/A   Unknown
4:00 PM 22.6 °F 12.6 °F 19.4 °F 87% 29.52 in - SSW 9.2 mph - N/A   Unknown
8:00 PM 19.0 °F 8.2 °F 16.5 °F 90% 29.56 in - SSE 9.2 mph - N/A   Unknown